OneWeb SL0622

operational
NORAD ID: 55163 Int'l Des: 2023-004 Owner: ONEWEBN Country: UK Constellation: oneweb
LEOCIRCULARPOLARONEWEB_TYPE

关于 OneWeb SL0622

正在加载描述...

实时位置

正在加载3D地球...

即将过境

高度历史

Altitude vs Time

uPlot chart will show altitude changes over time

两行轨道根数

1 55163U 23004Z 26062.49939887 -.00000456 00000-0 -13221-2 0 9990
2 55163 87.8854 42.0767 0002264 66.8849 293.2518 13.11416857151940
Epoch: Mar 3, 2026 • Age: 27 hours

当前状态

高度 1221.0 km
速度 7.24 km/s
星下点 -5.96°S, 159.21°W
发射日期 Jan 10, 2023
运行时间 3.1 years
类型 internet

技术详情

分类 Payload
质量 148.00 kg
干质量 140.00 kg
总质量 148.00 kg
长度 1.30 m
直径 1.00 m
跨度 5.00 m
形状 Trapezoid+2 pan
制造商 ONEWUS
平台类型 ARROW
阶段状态 In Orbit
所有者/国家 ONEWEBN/UK

大型星座

Loading constellations...